Terug naar catalogus

THOR ABLESTAR DEB

ActiefPO
NORAD 3810·DEBRIS·🇺🇸 United States

Gelanceerd Aug 13, 1965 vanaf Vandenberg Space Force Base

Loading…

Volgende Passages (komende 24 uur)

TLE

VersSource: Space-Track

Epoch: Sep 13, 2026, 22:30 UTC

1 03810U 65065P   26256.93770979  .00000436  00000-0  63892-3 0  9990
2 03810  90.0035 216.0555 0063744  32.2089  31.1128 13.52269024270877

Volg THOR ABLESTAR DEB in realtime met AllMySat

Download on the App Store